Location: *
(31.2983°S, 151.4094°E)
Time: 06:14:07
(UTC+00:00)

Chandra Rocket (1) - Pass Details

Date: 25 August 2019
Orbit: 296 x 11074 km, 28.4° (Epoch: 15 September)

Event Time Altitude Azimuth Distance (km) Brightness Sun altitude
Exits shadow 19:05:07 17° 281° (W) 6,309 6.5 -16.4°
Maximum altitude 19:19:34 74° 0° (N) 1,472 3.9 -13.3°
Drops below altitude 10° 19:24:39 10° 85° (E) 2,305 6.5 -12.3°
Sets 19:26:08 0° 87° (E) 2,895 7.7 -11.9°
